DateTimeUTC,F1_A11,F1_S11,BsB_S11,BsG_S11,BsR_S11,BbsB_S11,BbsG_S11,BbsR_S11,BaB_A11,BaG_A11,BaR_A11,Tu_S11,T_S11,Uu_S11,U_S11,P_S11,T1_A11
2021-01-12T13:00:00Z,00000200,21000000,,,,,,,-000.09,-000.14,-000.04,16.8,23.9,,00.0,0646.5,30.9
2021-01-12T13:01:00Z,00000200,21000000,,,,,,,0000.13,-000.07,-000.25,16.8,23.9,,00.0,0646.5,30.9
2021-01-12T13:02:00Z,00000200,21000000,,,,,,,-000.28,0000.13,0000.15,16.8,23.9,,00.0,0646.5,30.9
2021-01-12T13:03:00Z,00000200,61000000,,,,,,,0000.24,-000.32,-000.11,16.8,23.9,,00.0,0646.5,30.9
2021-01-12T13:04:00Z,00000200,41000000,0001.14,-000.04,-000.05,0000.19,0000.03,-000.20,0000.04,0000.47,0000.27,17.0,23.7,00.0,00.0,0647.3,30.9
2021-01-12T13:05:00Z,00000200,01000000,0000.36,-000.08,-000.19,0000.11,0000.07,-000.15,0000.20,0000.30,0000.49,17.0,23.7,00.1,00.0,0647.4,30.9
2021-01-12T13:06:00Z,00000200,01000000,0000.27,-000.15,-000.05,-000.11,0000.00,-000.02,0000.11,0000.02,-000.21,17.1,23.7,00.1,00.0,0647.4,30.9
2021-01-12T13:07:00Z,00000200,01000000,0000.08,0000.35,-000.18,0000.57,0000.17,0000.03,-000.23,0000.04,-000.04,17.2,23.7,00.1,00.0,0647.4,30.9
2021-01-12T13:08:00Z,00000200,01000000,0000.46,0000.28,-000.46,-000.21,-000.05,0000.09,-000.92,-001.33,-001.21,17.3,23.8,00.0,00.0,0647.4,30.9
2021-01-12T13:09:00Z,00000200,01000000,0000.90,0000.21,-000.23,0000.52,0000.22,0000.12,0000.34,0000.17,0000.08,17.4,23.8,00.0,00.0,0647.4,31.0
2021-01-12T13:10:00Z,00000200,01000000,0000.39,0000.10,-000.02,-000.15,0000.30,-000.03,-000.19,0000.20,0000.03,17.4,23.8,00.1,00.1,0647.4,31.0
2021-01-12T13:11:00Z,00000200,01000000,0001.00,-000.17,-000.24,0000.14,-000.01,-000.10,-000.01,-000.10,0000.12,17.4,23.9,00.0,00.0,0647.4,31.0
2021-01-12T13:12:00Z,00000200,01000000,-000.07,0000.14,-000.10,0000.05,-000.22,0000.10,0000.32,0000.16,0000.01,17.5,23.9,00.0,00.0,0647.4,31.0
2021-01-12T13:13:00Z,00000200,01000000,0000.64,0000.25,-000.23,-000.14,0000.35,0000.19,-000.50,-000.26,0000.01,17.5,23.9,00.0,00.0,0647.4,31.0
2021-01-12T13:14:00Z,00000200,01000000,0000.75,-000.08,-000.15,0000.51,0000.32,-000.04,-000.19,-000.35,0000.14,17.5,23.9,00.1,00.0,0647.5,31.0
2021-01-12T13:15:00Z,00000200,01000000,0000.80,-000.05,-000.06,0000.54,0000.21,0000.06,0000.03,0000.41,0000.05,17.4,23.9,00.0,00.0,0647.5,30.9
2021-01-12T13:16:00Z,00000200,01000000,0001.49,-000.01,0000.02,0000.12,0000.08,0000.12,0000.31,0000.09,-000.19,17.4,23.9,00.0,00.0,0647.5,31.0
2021-01-12T13:17:00Z,00000200,01000000,-000.12,0000.21,-000.05,0000.37,0000.09,0000.10,0000.12,-000.15,-000.06,17.4,23.9,00.0,00.0,0647.5,31.0
2021-01-12T13:18:00Z,00000200,01000000,0000.43,0000.29,0000.21,0000.09,0000.27,0000.25,0000.20,0000.37,-000.01,17.4,23.9,00.0,00.0,0647.5,31.0
2021-01-12T13:19:00Z,00000200,01000000,0000.50,0000.05,-000.19,0000.11,-000.24,0000.24,-000.23,-000.26,-000.06,17.4,23.9,00.0,00.0,0647.4,31.0
2021-01-12T13:20:00Z,00000200,01000000,0000.91,0000.11,-000.22,0000.34,0000.08,-000.07,0000.03,0000.43,0000.26,17.4,23.9,00.0,00.0,0647.2,31.0
2021-01-12T13:21:00Z,00000200,01000000,0000.11,0000.09,-000.14,0000.17,0000.06,0000.07,0000.18,-000.17,0000.08,17.4,23.9,00.1,00.0,0647.2,30.9
2021-01-12T13:22:00Z,00000200,01000000,0000.16,0000.15,-000.21,-000.07,0000.11,0000.02,0000.33,0000.57,0000.31,17.4,23.8,00.0,00.0,0647.2,30.9
2021-01-12T13:23:00Z,00000200,01000000,-000.12,-000.17,-000.23,0000.18,0000.08,-000.03,0000.03,-000.14,-000.03,17.4,23.8,00.1,00.1,0647.2,30.9
2021-01-12T13:24:00Z,00000200,01000000,0000.86,0000.12,-000.22,-000.62,0000.04,-000.08,0000.31,0000.20,0000.31,17.4,23.8,00.1,00.0,0647.2,30.9
2021-01-12T13:25:00Z,00000200,01000000,0000.89,-000.17,-000.15,-000.00,-000.13,-000.18,0000.28,0000.12,0000.18,17.4,23.8,00.1,00.1,0647.2,30.9
2021-01-12T13:26:00Z,00000200,01000000,0000.59,0000.15,-000.06,0000.49,-000.16,0000.05,0000.05,0000.14,-000.12,17.4,23.8,00.1,00.1,0647.1,30.9
2021-01-12T13:27:00Z,00000200,01000000,0000.71,0000.25,-000.25,-000.18,0000.11,0000.02,-000.04,-000.01,0000.18,17.4,23.8,00.1,00.1,0647.1,30.9
2021-01-12T13:28:00Z,00000200,01000000,0000.69,-000.10,0000.14,0000.37,0000.01,0000.32,-000.05,-000.06,-000.15,17.4,23.8,00.2,00.1,0647.1,30.9
2021-01-12T13:29:00Z,00000200,01000000,0000.32,0000.15,0000.11,0000.02,-000.11,0000.41,0000.06,0000.12,-000.06,17.4,23.8,00.2,00.1,0647.1,30.9
2021-01-12T13:30:00Z,00000200,01000000,0000.69,0000.13,-000.03,0000.47,-000.01,-000.15,0000.38,0000.20,0000.18,17.4,23.8,00.2,00.1,0647.1,30.9
2021-01-12T13:31:00Z,00000200,01000000,0000.63,0000.33,-000.09,0000.40,0000.29,0000.09,-000.05,-000.01,0000.30,17.4,23.8,00.3,00.2,0647.1,30.9
2021-01-12T13:32:00Z,00000200,01000000,0000.92,0000.23,0000.07,0000.38,0000.03,-000.05,-000.47,-000.08,-000.09,17.4,23.8,00.3,00.2,0647.0,30.9
2021-01-12T13:33:00Z,00000200,01000000,0000.50,0000.04,-000.22,0000.24,-000.09,-000.10,0000.38,-000.18,-000.02,17.4,23.8,00.2,00.1,0647.0,30.9
2021-01-12T13:34:00Z,00000200,01000000,0000.28,0000.11,0000.36,-000.10,0000.09,0000.07,0000.00,0000.80,0000.26,17.4,23.8,00.3,00.2,0646.9,30.9
2021-01-12T13:35:00Z,00000200,01000000,0000.77,0000.15,0000.05,0000.52,0000.00,0000.03,0000.69,-000.34,0000.05,17.5,23.8,00.3,00.2,0646.9,30.9
2021-01-12T13:36:00Z,00000200,01000000,0000.58,0000.27,-000.22,0000.53,0000.32,-000.02,0000.27,0000.65,0000.26,17.6,23.9,00.3,00.2,0646.9,31.0
2021-01-12T13:37:00Z,00000200,01000000,0000.78,0000.01,-000.22,0000.04,0000.10,-000.03,-000.29,-000.01,0000.16,17.7,24.0,00.4,00.2,0646.9,31.0
2021-01-12T13:38:00Z,00000200,01000000,0000.78,-000.09,-000.07,-000.15,0000.24,0000.05,0000.48,0000.48,-000.02,17.8,24.1,00.4,00.3,0646.9,31.0
2021-01-12T13:39:00Z,00000200,01000000,0000.16,0000.06,-000.22,-000.14,-000.06,0000.36,-000.05,0000.01,0000.06,17.9,24.1,00.4,00.3,0646.9,31.0
2021-01-12T13:40:00Z,00000200,01000000,0000.27,-000.25,-000.29,-000.19,0000.16,-000.11,0000.29,-000.22,0000.26,18.1,24.2,00.3,00.2,0646.9,31.1
2021-01-12T13:41:00Z,00000200,01000000,0000.93,-000.16,0000.02,0000.18,-000.01,0000.19,-000.18,0000.29,-000.18,18.2,24.3,00.4,00.3,0646.9,31.1
2021-01-12T13:42:00Z,00000200,01000000,0000.79,0000.17,0000.13,0000.42,0000.29,0000.14,0000.26,0000.17,0000.16,18.3,24.4,00.3,00.2,0646.9,31.1
2021-01-12T13:43:00Z,00000200,01000000,0001.17,0000.06,-000.06,0000.10,0000.18,0000.18,0000.31,-000.02,0000.08,18.3,24.4,00.5,00.3,0646.9,31.1
2021-01-12T13:44:00Z,00000200,01000000,0000.91,-000.23,-000.31,0000.46,0000.11,0000.13,-000.13,0000.18,-000.11,18.4,24.5,00.5,00.3,0646.8,31.1
2021-01-12T13:45:00Z,00000200,01010000,-000.08,0000.07,-000.47,0000.05,-000.04,-000.02,0000.22,-000.07,0000.35,18.4,24.5,00.4,00.3,0646.8,31.1
2021-01-12T13:46:00Z,00000200,01000000,0000.66,-000.13,0000.13,0000.58,-000.18,0000.42,-000.19,0000.60,-000.17,18.4,24.5,00.5,00.4,0646.8,31.1
2021-01-12T13:47:00Z,00000200,01000000,0000.98,0000.31,-000.25,0000.20,0000.22,0000.21,0000.30,-000.30,0000.35,18.4,24.5,00.6,00.4,0646.8,31.1
2021-01-12T13:48:00Z,00000200,01000000,0000.28,0000.04,-000.21,-000.13,0000.06,0000.16,0000.32,0000.38,0000.13,18.3,24.5,00.6,00.4,0646.9,31.0
2021-01-12T13:49:00Z,00000200,01000000,-000.06,-000.40,-000.06,0000.21,0000.16,0000.22,0000.18,-000.04,-000.12,18.4,24.5,00.7,00.5,0646.9,31.0
2021-01-12T13:50:00Z,00000200,01000000,0000.25,0000.15,-000.06,0000.74,0000.09,0000.15,-000.12,0000.23,-000.02,18.3,24.5,00.7,00.5,0646.9,31.0
2021-01-12T13:51:00Z,00000200,01000000,0000.32,0000.20,-000.21,0000.39,0000.10,0000.20,0000.18,0000.17,0000.18,18.4,24.5,00.9,00.6,0646.9,31.0
2021-01-12T13:52:00Z,00000200,01000000,0000.60,0000.60,0000.07,-000.33,-000.05,0000.03,0000.19,-000.12,0000.02,18.4,24.5,00.8,00.5,0647.0,31.0
2021-01-12T13:53:00Z,00000200,01000000,0000.38,0000.17,-000.13,0000.27,0000.18,0000.13,-000.49,-000.01,0000.13,18.4,24.5,00.7,00.5,0647.0,31.0
2021-01-12T13:54:00Z,00000200,01000000,0000.55,-000.06,-000.09,-000.12,0000.09,0000.18,0000.24,0000.22,-000.54,18.3,24.6,00.8,00.5,0647.0,31.0
2021-01-12T13:55:00Z,00000200,01000000,0000.68,-000.07,-000.14,0000.67,0000.05,0000.06,-000.02,-000.27,0000.38,18.3,24.6,00.7,00.5,0647.0,31.0
2021-01-12T13:56:00Z,00000200,01000000,0000.69,0000.07,-000.12,0000.03,-000.04,-000.06,0000.08,0000.06,0000.21,18.3,24.6,00.8,00.5,0647.1,31.0
2021-01-12T13:57:00Z,00000200,41000000,,,,,,,-000.50,-000.71,-000.56,18.4,24.6,00.6,00.4,0647.2,31.0
2021-01-12T13:58:00Z,00000200,61000000,,,,,,,0000.16,0000.17,-000.13,18.1,24.7,00.4,00.3,0646.2,31.0
2021-01-12T13:59:00Z,00000200,21000000,,,,,,,0000.15,0000.34,0000.25,18.0,24.8,00.3,00.2,0646.2,31.0
